Aérodrome :
LOGIN :

S'inscrire | Disclaimer

   EN    FR    IT 

 










Légende :    VFR   VFR Marginal   IFR   IFR Intensif   IFR Très Intensif
Visi : 
Plafond : 
>= 8 km
>= 3000ft
5 à 8 km
1000 à 3000 ft
1500m à 5 km
500 à 1000 ft
800 à 1500m
200 à 500 ft
< 800m
< 200 ft
Symboles :   Orages  Brouillard  Fortes neiges  Fortes précipitations  Vent > 20 kt
SIGMETs :   Divers  Orages  Givrage  Turbulence  Onde Orograph.  Cendres Volcan.







- Altitude de l'aérodrome : 512 ft
- Code IATA : URO
- Voir les cartes d'approche


LFOP - Rouen Vallée de Seine

DERNIER METAR :
  • 222000Z AUTO 04007KT CAVOK 00/M05 Q1018 NOSIG

METARs EXPIRÉS :
  • 221930Z AUTO 04008KT 9999 NSC 01/M05 Q1018 NOSIG
  • 221900Z AUTO 05009KT CAVOK 01/M05 Q1019 NOSIG
  • 221830Z AUTO 05009KT 9999 NSC 01/M06 Q1019 NOSIG
  • 221800Z AUTO 06011KT 9999 NSC 01/M05 Q1018 NOSIG
  • 221730Z AUTO 05008KT 020V080 CAVOK 02/M05 Q1018 NOSIG

TAF TAF LFOP
Valide du 22 à 18h jusqu'au 23 à 18h UTC


221700Z 2218/2318 04010KT CAVOK
PROB30
TEMPO 2300/2310 4000 BR
ATIS : +33 2 35 80 80 34
Météo : +33 2 32 86 52 80
Pas de NOTAMs connus pour ce terrain.



MET'MAP, la Météo Aéronautique d'un coup d'oeil ! - Copyright ORBIFLY Décembre 2007 - Disclaimer

ORBIFLY MET'MAP TEAM :

Programmation & Développement : Alexandra Zaïnal
Conception & Développement : Baudouin d'Aumeries
Co-Programmation & Développement : Marc-Olivier Méhu
Soutien technique & logistique : Manuel Goepfert

Contact : metmap@orbifly.com




SOURCES & CREDITS :

   NOAA